< < Back
Terminal Aerodrome Forecast


Current Version              Previous Versions:   1  2  3  4  5  6  7  8  9  

Terminal Aerodrome Forecast

179
FTUS42 KGSP 020500
TAFCLT
TAF
KCLT 020535Z 0206/0306 22003KT P6SM SCT250
     FM021500 25006KT P6SM SCT060
     FM022100 22006KT P6SM BKN060 PROB30 0221/0303 4SM TSRA BKN040CB
     FM030300 20004KT P6SM BKN060 PROB30 0303/0306 4SM TSRA
      BKN040CB=



Latest METAR

033
SAUS70 KWBC 021700 RRB
MTRCLT
METAR KCLT 021652Z 25006KT 10SM CLR 33/20 A3007 RMK AO2 SLP173 T03330200
$


USA.gov is the U.S. government's official web portal to all federal, state and local government web resources and services.